This demonstration page uses our WeatherBlox Daily Observations layout. Learn more.

Left ArrowRight Arrow

31.84235, -102.49876

Hourly Observations for May 6, 2021

Temp ( °F °C ) Dew Point ( °F °C ) Humidity (%) Winds ( mph kmh ) Pressure ( in mb ) Visibility ( mi km ) Precip ( " mm )
12:53 am 00:53 Clear 70 21.1 44 6.7 39 39 S 10 17 29.98 1015 10 16 0.00 0.00
1:53 am 01:53 Clear 68 20 46 7.8 45 45 S 10 17 29.98 1015 10 16 0.00 0.00
2:53 am 02:53 Clear 66 18.9 46 7.8 49 49 S 10 17 29.98 1015 10 16 0.00 0.00
3:53 am 03:53 Clear 64 17.8 47 8.3 54 54 S 10 17 29.96 1015 10 16 0.00 0.00
4:53 am 04:53 Clear 61 16.1 48 8.9 63 63 SSE 5 7 29.99 1016 10 16 0.00 0.00
5:53 am 05:53 Clear 59 15 50 10 72 72 NNE 16 26 30.04 1017 10 16 0.00 0.00
6:53 am 06:53 Clear 57 13.9 48 8.9 72 72 NE 13 20 30.10 1019 10 16 0.00 0.00
7:53 am 07:53 Sunny 58 14.4 47 8.3 67 67 E 15 24 30.14 1021 10 16 0.00 0.00
8:53 am 08:53 Sunny 62 16.7 47 8.3 58 58 E 16 26 30.15 1021 10 16 0.00 0.00
9:53 am 09:53 Sunny 65 18.3 48 8.9 54 54 ESE 18 30 30.16 1021 10 16 0.00 0.00
10:53 am 10:53 Sunny 70 21.1 48 8.9 46 46 ESE 16 26 30.15 1021 10 16 0.00 0.00
11:53 am 11:53 Sunny 73 22.8 49 9.4 43 43 ESE 13 20 30.16 1021 10 16 0.00 0.00
12:53 pm 12:53 undefined 75 23.9 50 10 41 41 SSE 12 19 30.15 1021 10 16 0.00 0.00
1:53 pm 13:53 undefined 78 25.6 50 10 37 37 SSE 14 22 30.13 1020 10 16 0.00 0.00
2:53 pm 14:53 Sunny 81 27.2 51 10.6 35 35 SSE 15 24 30.10 1019 10 16 0.00 0.00
3:53 pm 15:53 Sunny 83 28.3 50 10 32 32 SE 13 20 30.07 1018 10 16 0.00 0.00
4:53 pm 16:53 undefined 85 29.4 47 8.3 27 27 SSE 13 20 30.04 1017 10 16 0.00 0.00
5:53 pm 17:53 Sunny 85 29.4 47 8.3 27 27 S 10 17 30.02 1017 10 16 0.00 0.00
6:53 pm 18:53 undefined 85 29.4 48 8.9 28 28 SE 18 30 30.01 1016 10 16 0.00 0.00
7:53 pm 19:53 Sunny 82 27.8 47 8.3 29 29 ESE 17 28 30.01 1016 10 16 0.00 0.00
8:53 pm 20:53 undefined 78 25.6 48 8.9 35 35 ESE 14 22 30.04 1017 10 16 0.00 0.00
9:53 pm 21:53 undefined 75 23.9 48 8.9 39 39 ESE 16 26 30.06 1018 10 16 0.00 0.00
10:53 pm 22:53 undefined 73 22.8 47 8.3 40 40 ESE 15 24 30.06 1018 10 16 0.00 0.00
11:53 pm 23:53 undefined 70 21.1 46 7.8 42 42 SE 13 20 30.06 1018 10 16 0.00 0.00

Powered by AerisWeather